Regional Weather Roundup
Issued by NWS Kansas City/Pleasant Hill, MO

Home | Current Version | Previous Version | Graphics & Text | Print | Product List | Glossary Off
Versions: 1 2 3 4 5 6 7 8 9 10 11 12 13 14 15 16 17 18 19 20 21 22 23 24 25 26 27 28 29 30 31 32 33 34 35 36 37 38 39 40 41 42 43 44 45 46 47 48 49 50

000
ASUS43 KEAX 211510
RWREAX

WEATHER ROUNDUP FOR EASTERN KANSAS AND NORTHWEST MISSOURI
NATIONAL WEATHER SERVICE KANSAS CITY/PLEASANT HILL MO
900 AM CST SUN DEC 21 2014

KSZ040-057-103>105-MOZ028-029-037-043-211600-
...KANSAS CITY METROPOLITAN AREA...

CITY           SKY/WX    TMP DP  RH WIND       PRES   REMARKS
K.C. INTL      DRIZZLE   39  37  92 S13       30.00F WCI  31
K.C. DOWNTOWN  CLOUDY    41  37  86 S9        30.02F
LEES SUMMIT    CLOUDY    40  38  93 S9        30.03F FOG     WCI  34
OLATHE - IXD   CLOUDY    38  38 100 S13       30.02F FOG     WCI  30
OLATHE - OJC   CLOUDY    39  39 100 S10       30.01F FOG     WCI  32
LAWRENCE       CLOUDY    39  37  92 S9        30.01F WCI  33

$$

MOZ001>008-011>017-020>025-030>033-038>040-044>046-053-054-211600-
...NORTHERN AND CENTRAL MISSOURI...

CITY           SKY/WX    TMP DP  RH WIND       PRES   REMARKS
ST. JOSEPH     CLOUDY    39  36  89 S16       30.00F WCI  30
MOSBY          CLOUDY    37  37 100 SE5       30.03F FOG     WCI  34
WARRENSBURG    CLOUDY    39  37  93 SE8       30.07S FOG     WCI  34
WHITEMAN AFB   CLOUDY    40  38  92 S12       30.07S WCI  34
CLINTON        FOG       41  39  93 S7        30.09S VSB 1
SEDALIA        CLOUDY    43  36  76 S13       30.09S
WARSAW         NOT AVBL
MARSHALL       CLOUDY    43  39  87 SE8       30.09F
CHILLICOTHE      N/A     41  37  86 S9        30.05F
MOBERLY        CLOUDY    41  34  75 SE7       30.09F
KIRKSVILLE     CLOUDY    40  36  86 S9        30.07F WCI  34

$$

MOZ041-047>049-056>058-063>065-088>090-097-211600-
...EASTERN AND SOUTHERN MISSOURI...

CITY           SKY/WX    TMP DP  RH WIND       PRES   REMARKS
ST. LOUIS INTL CLOUDY    41  32  70 SE10      30.21R WCI  35
SPIRIT OF STL  CLOUDY    41  33  73 SE6       30.18F
COLUMBIA       CLOUDY    41  36  82 SE10      30.11F WCI  35
JEFFERSON CITY CLOUDY    42  36  79 SE7       30.14S
MEXICO         CLOUDY    41  41 100 SE8       30.11F
HANNIBAL       CLOUDY    41  34  75 SE8       30.12F
ROLLA          CLOUDY    39  34  82 S9        30.13S WCI  33
LEBANON        CLOUDY    39  36  87 S8        30.11F WCI  34
OSAGE BEACH    CLOUDY    43  34  70 SE7       30.12S
SPRINGFIELD    CLOUDY    40  38  93 S13       30.09S FOG     WCI  32
BRANSON        CLOUDY    39  37  93 S9        30.12F WCI  33
NEVADA         DRIZZLE   41  39  93 S6        30.09S
WEST PLAINS    CLOUDY    38  34  85 SE7       30.15F WCI  33

$$

IAZ060-094-KSZ022-034>040-054-083-096-NEZ052-066-093-211600-
...KANSAS...SOUTHEAST NEBRASKA AND IOWA...

CITY           SKY/WX    TMP DP  RH WIND       PRES   REMARKS
TOPEKA         CLOUDY   N/A N/A N/A S10       30.00S
MANHATTAN      CLOUDY    41  38  89 S9        29.94F
EMPORIA        CLOUDY    38  38 100 S13       29.98F FOG     WCI  30
CHANUTE        CLOUDY    41  39  93 S8        30.05S
WICHITA        CLOUDY    41  37  86 S13       29.95F WCI  34
OMAHA          CLOUDY    38  36  92 S16       29.88F FOG     WCI  29
LINCOLN        CLOUDY    39  36  89 S12       29.87F FOG     WCI  32
FALLS CITY     CLOUDY    38  35  89 S13       29.95F WCI  30
LAMONI         CLOUDY    36  34  92 S14       29.99F FOG     WCI  27
DES MOINES     CLOUDY    39  34  82 S18G26    29.96F WCI  30

$$



USA.gov is the U.S. government's official web portal to all federal, state and local government web resources and services.